Weather History for Avno, Denmark

Change the Weather History Date:

Saturday, October 13, 2012

  Actual Average Record
Temperature  
Mean Temperature 46 °F -  
Max Temperature 48 °F - - ()
Min Temperature 44 °F - - ()
Degree Days  
Heating Degree Days 19    
Moisture  
Dew Point 42 °F    
Average Humidity 84    
Maximum Humidity 87    
Minimum Humidity 76    
Precipitation  
Precipitation 0.00 in - - ()
Sea Level Pressure  
Sea Level Pressure 29.69 in    
Wind  
Wind Speed 10 mph ()    
Max Wind Speed 16 mph    
Max Gust Speed 39 mph    
T = Trace of Precipitation, MM = Missing Value Source: Averaged Metar Reports

Daily Weather History Graph

Daily Weather History Graph

Search for Another Location

Airport:

Trip Planner

Search our weather history database for the weather conditions in past years. The results will help you decide how hot, cold, wet, or windy it might be!

Date:

Astronomy

Oct. 13, 2012 Rise Set
Actual Time 7:39 AM CEST 6:17 PM CEST
Civil Twilight 7:02 AM CEST 6:54 PM CEST
Nautical Twilight 6:20 AM CEST 7:36 PM CEST
Astronomical Twilight 5:38 AM CEST 8:18 PM CEST
Moon 4:51 AM CEST (10/13) 5:04 PM CEST (10/13)
Length of Visible Light 11h 51m
Length of Day
10h 38m
Waning Crescent, 6% of the Moon is Illuminated
Oct 13
Waning Crescent
Oct 15
New
Oct 22
First Quarter
Oct 29
Full
Nov 7
Last Quarter

Hourly Weather History & Observations

Time (CEST) Temp. Windchill Dew Point Humidity Pressure Visibility Wind Dir Wind Speed Gust Speed Precip Events Conditions
12:20 AM 48.2 °F - 41.0 °F 76% 29.80 in - ENE 16.1 mph 36.8 mph N/A   Mostly Cloudy
12:50 AM 46.4 °F 40.4 °F 41.0 °F 81% 29.80 in - ENE 13.8 mph 35.7 mph N/A   Mostly Cloudy
1:50 AM 48.2 °F - 41.0 °F 76% 29.77 in - ENE 15.0 mph 32.2 mph N/A   Mostly Cloudy
2:20 AM 48.2 °F - 41.0 °F 76% 29.77 in - Variable 12.7 mph 32.2 mph N/A   Mostly Cloudy
2:50 AM 46.4 °F 40.1 °F 41.0 °F 81% 29.74 in - Variable 15.0 mph 29.9 mph N/A   Mostly Cloudy
3:20 AM 46.4 °F 40.1 °F 41.0 °F 81% 29.74 in - ENE 15.0 mph 33.4 mph N/A   Mostly Cloudy
3:50 AM 46.4 °F 39.8 °F 41.0 °F 81% 29.74 in - Variable 16.1 mph 36.8 mph N/A   Mostly Cloudy
5:20 AM 46.4 °F 40.4 °F 42.8 °F 87% 29.71 in - ENE 13.8 mph 35.7 mph N/A   Mostly Cloudy
5:50 AM 46.4 °F 40.7 °F 42.8 °F 87% 29.71 in - Variable 12.7 mph 29.9 mph N/A   Mostly Cloudy
6:20 AM 46.4 °F 40.4 °F 41.0 °F 81% 29.71 in - ENE 13.8 mph 33.4 mph N/A   Mostly Cloudy
6:50 AM 46.4 °F 40.7 °F 41.0 °F 81% 29.71 in - ENE 12.7 mph 35.7 mph N/A   Mostly Cloudy
7:20 AM 46.4 °F 40.4 °F 41.0 °F 81% 29.68 in - Variable 13.8 mph 39.1 mph N/A   Mostly Cloudy
8:20 AM 44.6 °F 38.8 °F 41.0 °F 87% 29.68 in - Variable 11.5 mph 32.2 mph N/A   Mostly Cloudy
8:50 AM 46.4 °F 41.5 °F 42.8 °F 87% 29.68 in - Variable 10.4 mph 33.4 mph N/A   Mostly Cloudy
9:50 AM 46.4 °F 42.4 °F 41.0 °F 81% 29.65 in - NE 8.1 mph 36.8 mph N/A   Mostly Cloudy
10:50 AM 44.6 °F 39.7 °F 41.0 °F 87% 29.65 in - NE 9.2 mph 31.1 mph N/A   Mostly Cloudy
11:20 AM 44.6 °F 40.2 °F 41.0 °F 87% 29.65 in - Variable 8.1 mph 32.2 mph N/A   Overcast
11:50 AM 44.6 °F 40.2 °F 41.0 °F 87% 29.65 in - Variable 8.1 mph 35.7 mph N/A   Overcast
12:20 PM 46.4 °F 43.5 °F 41.0 °F 81% 29.65 in - Variable 5.8 mph 35.7 mph N/A   Overcast
12:50 PM 46.4 °F 42.9 °F 41.0 °F 81% 29.65 in - Variable 6.9 mph 25.3 mph N/A   Mostly Cloudy
1:20 PM 46.4 °F 45.2 °F 42.8 °F 87% 29.65 in - NE 3.5 mph 20.7 mph N/A   Overcast
1:50 PM 46.4 °F 45.2 °F 42.8 °F 87% 29.65 in - Variable 3.5 mph 27.6 mph N/A   Mostly Cloudy
2:20 PM 46.4 °F 45.2 °F 42.8 °F 87% 29.65 in - Variable 3.5 mph 26.5 mph N/A   Overcast
2:50 PM 46.4 °F 43.5 °F 42.8 °F 87% 29.68 in - ENE 5.8 mph 25.3 mph N/A   Overcast
3:20 PM 46.4 °F 42.4 °F 42.8 °F 87% 29.68 in - ENE 8.1 mph - N/A   Overcast
3:50 PM 46.4 °F 42.9 °F 42.8 °F 87% 29.68 in - Variable 6.9 mph 20.7 mph N/A   Overcast
4:50 PM 48.2 °F - 42.8 °F 82% 29.68 in - Variable 9.2 mph - N/A   Mostly Cloudy
5:20 PM 46.4 °F 41.9 °F 42.8 °F 87% 29.68 in - Variable 9.2 mph - N/A   Mostly Cloudy
5:50 PM 46.4 °F 44.3 °F 42.8 °F 87% 29.68 in - Variable 4.6 mph - N/A   Scattered Clouds
6:20 PM 46.4 °F 43.5 °F 42.8 °F 87% 29.68 in - Variable 5.8 mph - N/A   Mostly Cloudy
7:20 PM 46.4 °F 43.5 °F 42.8 °F 87% 29.68 in - NNW 5.8 mph - N/A   Mostly Cloudy
8:20 PM 46.4 °F 45.2 °F 41.0 °F 81% 29.68 in - West 3.5 mph - N/A   Mostly Cloudy
8:50 PM 46.4 °F 44.3 °F 41.0 °F 81% 29.71 in - West 4.6 mph - N/A   Mostly Cloudy
10:50 PM 48.2 °F - 42.8 °F 82% 29.68 in - WSW 4.6 mph - N/A   Partly Cloudy
11:20 PM 48.2 °F - 42.8 °F 82% 29.68 in - West 5.8 mph - N/A   Partly Cloudy